Location: Brunembert
(50.7122°N, 1.8935°E)
Time: 09:40:01
(UTC+00:00)

Meteor 2-15 Rocket - Pass Details

Date: 22 April 2021
Orbit: 939 x 956 km, 82.5° (Epoch: 05 May)

Event Time Altitude Azimuth Distance (km) Brightness Sun altitude
Exits shadow 21:43:55 32° 183° (S) 1,551 5.1 -21.0°
Maximum altitude 21:46:54 83° 98° (E) 953 4.3 -21.2°
Drops below altitude 10° 21:53:00 10° 12° (NNE) 2,666 7.4 -21.8°
Sets 21:55:30 0° 12° (NNE) 3,615 8.2 -22.0°
